GOSAT-GW (IBUKI GW)

Last updated on Sat Oct 25 2025 00:02:33 GMT+0000 (Coordinated Universal Time)

1 64694U 25141A 25297.76033977 .00001498 00000+0 27235-3 0 9992 2 64694 98.0351 234.1798 0001429 85.2517 274.8851 14.67566734 17311
UTC large
Height (km)
Speed (km/s)
/
Latitude / Longitude
Inclination (degrees)
Orbital Period (minutes)
Azimuth
Elevation
Range (km)
Doppler Factor

Next 0 passes for location: London (51.5072 / 0.1276)

Sorry there are no passes over London.